Weather History for Dallas/Ft Worth, TX

Change the Weather History Date:

Wednesday, March 20, 2013

  Actual Average Record
Temperature  
Mean Temperature 57 °F 59 °F  
Max Temperature 68 °F 69 °F 91 °F (1932)
Min Temperature 45 °F 48 °F 19 °F (1965)
Degree Days  
Heating Degree Days 8 7  
Month to date heating degree days 180 193  
Since 1 July heating degree days 1770 2125  
Cooling Degree Days 0 1  
Month to date cooling degree days 15 18  
Year to date cooling degree days 27 25  
Growing Degree Days 7 (Base 50)    
Moisture  
Dew Point 31 °F    
Average Humidity 46    
Maximum Humidity 71    
Minimum Humidity 20    
Precipitation  
Precipitation 0.00 in 0.11 in 2.17 in (2012)
Month to date precipitation 1.21 2.27  
Year to date precipitation 6.95 7.06  
Snow  
Snow 0.00 in 0.00 in 1.20 in (2010)
Month to date snowfall 0.0 0.1  
Since 1 July snowfall 0.8 1.1  
Snow Depth 0.00 in    
Sea Level Pressure  
Sea Level Pressure 30.17 in    
Wind  
Wind Speed 8 mph (NNE)    
Max Wind Speed 17 mph    
Max Gust Speed 22 mph    
Visibility 10 miles    
Events      
T = Trace of Precipitation, MM = Missing Value Source: NWS Daily Summary

Daily Weather History Graph

Daily Weather History Graph

Search for Another Location

Airport:

Trip Planner

Search our weather history database for the weather conditions in past years. The results will help you decide how hot, cold, wet, or windy it might be!

Date:

Astronomy

Mar. 20, 2013 Rise Set
Actual Time 7:31 AM CDT 7:39 PM CDT
Civil Twilight 7:06 AM CDT 8:04 PM CDT
Nautical Twilight 6:38 AM CDT 8:33 PM CDT
Astronomical Twilight 6:09 AM CDT 9:02 PM CDT
Moon 1:32 PM CDT (3/20) 2:55 AM CDT (3/20)
Length of Visible Light 12h 57m
Length of Day
12h 08m
First Quarter, 59% of the Moon is Illuminated
Mar 20
First Quarter
Mar 27
Full
Apr 2
Last Quarter
Apr 10
New
Apr 18
First Quarter

Hourly Weather History & Observations

Time (CDT) Temp. Dew Point Humidity Pressure Visibility Wind Dir Wind Speed Gust Speed Precip Events Conditions
12:53 AM 55.0 °F 32.0 °F 42% 30.12 in 10.0 mi NNE 11.5 mph - N/A   Scattered Clouds
1:53 AM 52.0 °F 33.1 °F 49% 30.14 in 10.0 mi NNE 8.1 mph - N/A   Scattered Clouds
2:53 AM 53.1 °F 34.0 °F 48% 30.17 in 10.0 mi North 13.8 mph - N/A   Partly Cloudy
3:53 AM 50.0 °F 34.0 °F 54% 30.16 in 10.0 mi NNE 9.2 mph - N/A   Partly Cloudy
4:53 AM 48.0 °F 34.0 °F 58% 30.17 in 10.0 mi NNE 8.1 mph - N/A   Scattered Clouds
5:53 AM 48.9 °F 35.1 °F 59% 30.19 in 10.0 mi NNE 8.1 mph - N/A   Mostly Cloudy
6:53 AM 46.9 °F 35.1 °F 63% 30.23 in 10.0 mi North 9.2 mph - N/A   Partly Cloudy
7:53 AM 46.9 °F 37.0 °F 68% 30.25 in 10.0 mi North 9.2 mph - N/A   Partly Cloudy
8:53 AM 52.0 °F 36.0 °F 54% 30.28 in 10.0 mi NNE 10.4 mph - N/A   Partly Cloudy
9:53 AM 54.0 °F 35.1 °F 49% 30.30 in 10.0 mi NNE 6.9 mph - N/A   Partly Cloudy
10:53 AM 57.0 °F 35.1 °F 44% 30.30 in 10.0 mi Calm Calm - N/A   Clear
11:53 AM 61.0 °F 35.1 °F 38% 30.29 in 10.0 mi NNE 9.2 mph - N/A   Clear
12:53 PM 64.9 °F 30.0 °F 27% 30.27 in 10.0 mi NE 9.2 mph - N/A   Clear
1:53 PM 66.0 °F 28.9 °F 25% 30.25 in 10.0 mi NNE 13.8 mph - N/A   Clear
2:53 PM 66.0 °F 26.1 °F 22% 30.19 in 10.0 mi NNE 10.4 mph - N/A   Partly Cloudy
3:53 PM 66.0 °F 27.0 °F 23% 30.17 in 10.0 mi Variable 5.8 mph - N/A   Partly Cloudy
4:53 PM 66.0 °F 24.1 °F 20% 30.14 in 10.0 mi North 10.4 mph - N/A   Mostly Cloudy
5:53 PM 66.0 °F 24.1 °F 20% 30.12 in 10.0 mi NE 8.1 mph - N/A   Scattered Clouds
6:53 PM 63.0 °F 26.1 °F 25% 30.09 in 10.0 mi NNE 8.1 mph - N/A   Mostly Cloudy
7:53 PM 55.0 °F 27.0 °F 34% 30.09 in 10.0 mi NNE 6.9 mph - N/A   Mostly Cloudy
8:53 PM 55.9 °F 26.1 °F 32% 30.08 in 10.0 mi ENE 3.5 mph - N/A   Scattered Clouds
9:53 PM 55.0 °F 28.0 °F 35% 30.06 in 10.0 mi ESE 4.6 mph - N/A   Mostly Cloudy
10:53 PM 54.0 °F 28.9 °F 38% 30.04 in 10.0 mi East 6.9 mph - N/A   Mostly Cloudy
11:53 PM 55.0 °F 28.9 °F 37% 30.03 in 10.0 mi SSE 4.6 mph - N/A   Mostly Cloudy